Location: Emporia
(38.4040°N, 96.1810°W)
Time: 07:44:42
(UTC-06:00)

Amateur Radio Satellites - All Passes

Search period start: 11 December 2016 07:14
Search period end: 12 December 2016 07:14
Location: Emporia, 38.4040°N, 96.1810°W

Satellite Date Start Highest point End Downlink Frequencies (MHz)
Time Altitude Azimuth
AIST 2 11 Dec 07:17:49 07:21:50 55° 303° (WNW) 07:25:56 435.215
NOAA 18 11 Dec 07:17:52 07:23:26 90° 103° (ESE) 07:28:56 137.9125
Cosmos 2491 11 Dec 07:21:57 07:30:38 64° 280° (W) 07:39:19 435.465 / 435.565
HO-68 11 Dec 07:22:01 07:28:16 31° 96° (E) 07:34:28 435.675
CINEMA 3 11 Dec 07:23:17 07:27:40 39° 97° (E) 07:31:51 145.822/145.860
CUTE 1.7 + AOD 2 11 Dec 07:27:44 07:31:13 24° 95° (E) 07:34:41 437.475
CANX-2 11 Dec 07:46:30 07:50:37 48° 99° (E) 07:54:43 2200.000
COMPASS 1 11 Dec 07:59:16 08:02:43 25° 96° (E) 08:06:09 437.405
SEEDS 11 Dec 07:59:45 08:03:41 38° 98° (E) 08:07:36 437.485
CUTE-I 11 Dec 08:00:51 08:04:55 23° 295° (WNW) 08:08:58 437.470
NOAA 15 11 Dec 08:04:50 08:08:29 19° 296° (WNW) 08:12:08 137.62
Cosmos 2504 11 Dec 08:14:42 08:21:58 32° 276° (W) 08:28:52 435.465 / 435.565
STRAND 1 11 Dec 08:18:42 08:21:50 16° 268° (W) 08:24:58 437.568
RS-15 11 Dec 08:21:03 08:32:25 50° 312° (NW) 08:44:19 29.354- 29.394
DOVE 4 11 Dec 08:26:13 08:28:48 14° 298° (WNW) 08:31:22 437.250
Oscar 11 11 Dec 08:28:29 08:31:03 15° 93° (E) 08:33:37 145.826/435.025
Cubesat XI-IV 11 Dec 08:30:08 08:32:30 13° 300° (WNW) 08:34:53 437.490
CUBEBUG 2 11 Dec 08:38:26 08:42:43 63° 101° (E) 08:46:51 437.445
TIGRISAT 11 Dec 08:39:00 08:41:27 14° 65° (ENE) 08:43:52 435.000
ANTELSAT 11 Dec 08:41:37 08:44:27 16° 65° (ENE) 08:47:14 437.575/2403.000
AAUSAT CUBESAT 2 11 Dec 08:57:48 09:01:58 85° 284° (WNW) 09:06:08 437.432
PRISM 11 Dec 09:00:44 09:04:46 69° 259° (W) 09:08:52 437.425
NOAA 18 11 Dec 09:01:10 09:03:15 12° 302° (WNW) 09:05:21 137.9125
CINEMA 3 11 Dec 09:01:11 09:04:28 19° 294° (WNW) 09:07:37 145.822/145.860
CUTE 1.7 + AOD 2 11 Dec 09:03:30 09:06:57 25° 290° (WNW) 09:10:24 437.475
DELFI C3 11 Dec 09:06:28 09:08:27 13° 92° (E) 09:10:26 145.870
AO-85 11 Dec 09:07:49 09:11:05 24° 50° (NE) 09:14:16 145.980
UWE-3 11 Dec 09:08:24 09:12:39 89° 101° (E) 09:16:48 435.000/436.395/437.385
HO-68 11 Dec 09:09:17 09:16:07 48° 293° (WNW) 09:22:55 435.675
CANX-2 11 Dec 09:23:55 09:26:02 14° 294° (WNW) 09:28:10 2200.000
Cosmos 2491 11 Dec 09:27:16 09:29:23 11° 302° (WNW) 09:31:30 435.465 / 435.565
JAS-2 11 Dec 09:31:49 09:35:04 15° 63° (ENE) 09:38:09 435.910
COMPASS 1 11 Dec 09:34:46 09:38:10 24° 290° (WNW) 09:41:32 437.405
ZACube-1 11 Dec 09:36:03 09:40:14 74° 285° (WNW) 09:44:20 437.345
SEEDS 11 Dec 09:36:24 09:39:03 16° 293° (WNW) 09:41:42 437.485
GONETS M04 11 Dec 09:39:24 09:42:41 12° 60° (ENE) 09:45:57
FUNcube-1 11 Dec 09:40:16 09:44:26 72° 283° (WNW) 09:48:31 145.935
UNISAT 6 11 Dec 09:44:52 09:49:31 76° 77° (ENE) 09:54:09 437.425
CUSAT 1 11 Dec 09:46:59 09:48:51 16° 284° (WNW) 09:50:37 437.405
DANDE 11 Dec 09:47:05 09:51:13 67° 99° (E) 09:54:25 436.750
PCSat 11 Dec 09:49:29 09:54:23 36° 110° (ESE) 09:59:18 145.827
JUGNU 11 Dec 10:02:31 10:04:35 12° 175° (S) 10:06:38 437.505
Oscar 11 11 Dec 10:03:18 10:07:21 41° 287° (WNW) 10:11:23 145.826/435.025
HUMSAT D 11 Dec 10:11:28 10:15:20 41° 99° (E) 10:19:12 437.325/437.525
TIGRISAT 11 Dec 10:13:03 10:17:39 57° 260° (W) 10:22:12 435.000
ANTELSAT 11 Dec 10:16:13 10:20:44 49° 261° (W) 10:25:13 437.575/2403.000
CUBEBUG 2 11 Dec 10:17:42 10:18:43 11° 297° (WNW) 10:19:44 437.445
DELFI C3 11 Dec 10:39:40 10:43:26 40° 287° (WNW) 10:47:11 145.870
RS-15 11 Dec 10:40:31 10:49:04 21° 344° (NNW) 10:57:45 29.354- 29.394
NANOSAT C BR1 11 Dec 10:41:49 10:45:32 30° 70° (ENE) 10:49:15 145.865
AO-85 11 Dec 10:48:09 10:51:24 25° 247° (WSW) 10:54:36 145.980
QB50P2 11 Dec 10:53:10 10:57:16 46° 73° (ENE) 11:01:23 145.880/145.840
POLYITAN 1 11 Dec 10:53:33 10:57:38 44° 73° (ENE) 11:01:43 437.675
Cosmos 2499 11 Dec 10:55:25 11:03:25 45° 75° (ENE) 11:10:48 435.465 / 435.565
DUCHIFAT 1 11 Dec 11:00:27 11:04:30 44° 73° (ENE) 11:08:33 145.980
QB50P1 11 Dec 11:04:26 11:08:38 59° 74° (ENE) 11:12:51 145.935-145.965
JAS-2 11 Dec 11:13:23 11:19:41 74° 257° (WSW) 11:25:18 435.910
CUBEBUG 1 11 Dec 11:17:38 11:20:44 18° 93° (E) 11:23:48 437.445
ESTCUBE 1 11 Dec 11:25:42 11:29:56 38° 98° (E) 11:34:09 437.505/2401.250
POPSAT HIP 1 11 Dec 11:26:30 11:30:47 78° 258° (WSW) 11:35:05 437.405
50 SAT 11 Dec 11:31:20 11:32:02 10° 92° (E) 11:32:44 437.505
GONETS M04 11 Dec 11:32:31 11:41:14 70° 81° (E) 11:49:58
BUGSAT 1 11 Dec 11:32:49 11:36:45 38° 72° (ENE) 11:40:43 437.445
PCSat 11 Dec 11:33:02 11:37:47 30° 307° (NW) 11:42:34 145.827
SPROUT 11 Dec 11:34:01 11:35:09 11° 91° (E) 11:36:18 437.525
BEESAT 3 11 Dec 11:37:56 11:40:18 15° 46° (NE) 11:42:41 437.485
VELOX 1 11 Dec 11:43:42 11:47:17 23° 95° (E) 11:50:49 145.980
HUMSAT D 11 Dec 11:48:21 11:50:36 15° 294° (WNW) 11:52:50 437.325/437.525
JUGNU 11 Dec 11:50:53 11:52:41 11° 186° (S) 11:54:30 437.505
SRMSAT 11 Dec 11:53:43 11:54:52 11° 172° (S) 11:56:00 437.500
Gurwin Techsat 1B 11 Dec 12:08:39 12:11:08 13° 61° (ENE) 12:13:37 435.225
NANOSAT C BR1 11 Dec 12:17:59 12:21:14 21° 265° (W) 12:24:30 145.865
BEESAT 2 11 Dec 12:19:44 12:22:37 19° 48° (NE) 12:25:31 435.950
QB50P2 11 Dec 12:31:08 12:33:17 14° 268° (W) 12:35:26 145.880/145.840
POLYITAN 1 11 Dec 12:31:16 12:33:36 14° 268° (W) 12:35:58 437.675
DUCHIFAT 1 11 Dec 12:38:06 12:40:22 14° 268° (W) 12:42:39 145.980
AISAT 11 Dec 12:42:53 12:47:22 71° 284° (WNW) 12:51:47 437.250
QB50P1 11 Dec 12:43:49 12:44:45 11° 269° (W) 12:45:40 145.935-145.965
Cosmos 2499 11 Dec 12:48:56 12:56:14 35° 275° (W) 13:03:04 435.465 / 435.565
CUBEBUG 1 11 Dec 12:53:01 12:57:06 37° 289° (WNW) 13:01:10 437.445
RS-15 11 Dec 12:59:01 13:08:07 22° 21° (NNE) 13:17:07 29.354- 29.394
ISS 11 Dec 13:00:05 13:01:15 11° 128° (SE) 13:02:24 145.825
Oscar 19 11 Dec 13:00:18 13:05:25 80° 75° (ENE) 13:10:36 437.125/150
50 SAT 11 Dec 13:02:07 13:05:29 40° 286° (WNW) 13:08:51 437.505
ESTCUBE 1 11 Dec 13:03:15 13:06:26 19° 293° (WNW) 13:09:39 437.505/2401.250
SPROUT 11 Dec 13:07:12 13:11:25 57° 286° (WNW) 13:15:35 437.525
UKube-1 11 Dec 13:07:16 13:11:38 77° 103° (ESE) 13:15:57 .
BUGSAT 1 11 Dec 13:09:34 13:12:14 16° 267° (W) 13:14:56 437.445
DX 1 11 Dec 13:12:18 13:16:40 68° 285° (WNW) 13:21:01 434.975-435.025
BEESAT 3 11 Dec 13:14:20 13:18:13 51° 243° (WSW) 13:22:04 437.485
VELOX 1 11 Dec 13:19:50 13:23:42 30° 291° (WNW) 13:27:34 145.980
GONETS M04 11 Dec 13:30:52 13:37:10 23° 279° (W) 13:43:30
SRMSAT 11 Dec 13:40:56 13:43:07 12° 182° (S) 13:45:19 437.500
ITAMSAT 1 11 Dec 13:43:20 13:47:23 23° 66° (ENE) 13:51:26 435.822/435.867
Gurwin Techsat 1B 11 Dec 13:45:04 13:50:22 77° 257° (WSW) 13:55:44 435.225
SWISSCUBE 11 Dec 13:45:55 13:47:23 11° 91° (E) 13:48:52 437.505
O/OREOS (USA 219) 11 Dec 13:48:28 13:49:42 11° 97° (E) 13:50:56 437.305
BEESAT 11 Dec 13:49:32 13:50:45 11° 90° (E) 13:51:57 436.000
BEESAT 2 11 Dec 13:56:47 14:00:34 39° 245° (WSW) 14:04:19 435.950
TISAT 1 11 Dec 14:07:09 14:11:22 80° 285° (WNW) 14:15:33 437.305
ITUPSAT 1 11 Dec 14:19:06 14:22:54 23° 95° (E) 14:26:42 437.325
M-CUBED/EXP-1 PRIME 11 Dec 14:22:33 14:25:48 19° 97° (E) 14:28:54 437.505
AO-7 11 Dec 14:24:15 14:32:07 50° 65° (ENE) 14:40:03 29.400- 29.500
ISS 11 Dec 14:34:04 14:37:19 65° 323° (NW) 14:40:36 145.825
Oscar 19 11 Dec 14:44:20 14:45:18 10° 271° (W) 14:46:16 437.125/150
RS-15 11 Dec 15:12:06 15:24:16 57° 51° (NE) 15:36:01 29.354- 29.394
SWISSCUBE 11 Dec 15:20:52 15:25:36 67° 286° (WNW) 15:30:17 437.505
ITAMSAT 1 11 Dec 15:21:40 15:26:34 41° 261° (W) 15:31:29 435.822/435.867
O/OREOS (USA 219) 11 Dec 15:23:59 15:28:30 63° 292° (WNW) 15:33:00 437.305
BEESAT 11 Dec 15:24:13 15:28:58 69° 286° (WNW) 15:33:41 436.000
MOZHAYETS 4 11 Dec 15:35:34 15:39:49 38° 98° (E) 15:44:03
AUBIESAT-1 11 Dec 15:38:15 15:42:45 75° 290° (WNW) 15:46:58 437.475
AIST 2 11 Dec 15:40:18 15:44:29 57° 57° (ENE) 15:48:38 435.215
BRITE-PL 11 Dec 15:53:25 15:56:43 21° 66° (ENE) 16:00:13 437.365/2234.400
M-CUBED/EXP-1 PRIME 11 Dec 15:56:06 16:00:23 39° 294° (WNW) 16:04:26 437.505
ITUPSAT 1 11 Dec 15:56:30 16:00:45 33° 291° (WNW) 16:04:59 437.325
ISS 11 Dec 16:12:33 16:14:21 14° 341° (NNW) 16:16:08 145.825
AO-7 11 Dec 16:17:39 16:25:01 35° 262° (W) 16:32:28 29.400- 29.500
Cubesat XI-IV 11 Dec 16:31:29 16:34:12 14° 61° (ENE) 16:36:57 437.490
GOMX 1 11 Dec 16:34:47 16:38:36 24° 66° (ENE) 16:42:38 467.674
STARS 11 Dec 16:45:44 16:49:51 38° 99° (E) 16:53:56 437.465
KKS-1 11 Dec 16:57:03 17:01:31 70° 285° (WNW) 17:05:56 437.445
NOAA 18 11 Dec 17:04:13 17:08:04 20° 63° (ENE) 17:11:56 137.9125
HORYU 2 11 Dec 17:07:07 17:11:36 81° 258° (WSW) 17:16:06 437.375
MOZHAYETS 4 11 Dec 17:13:26 17:16:42 20° 293° (WNW) 17:19:57
AIST 2 11 Dec 17:20:44 17:22:27 12° 252° (WSW) 17:24:09 435.215
RS-15 11 Dec 17:25:12 17:36:27 44° 253° (WSW) 17:47:19 29.354- 29.394
BRITE-PL 11 Dec 17:30:53 17:34:55 35° 264° (W) 17:39:15 437.365/2234.400
CUBESAT XI-V 11 Dec 17:31:50 17:36:32 85° 283° (WNW) 17:41:14 437.345
Cosmos 2491 11 Dec 17:34:05 17:42:43 61° 79° (E) 17:51:17 435.465 / 435.565
SO-50 11 Dec 17:38:07 17:41:01 16° 109° (ESE) 17:43:54 436.795
CUTE-I 11 Dec 17:40:17 17:45:34 62° 73° (ENE) 17:50:52 437.470
NOAA 15 11 Dec 17:42:30 17:47:42 72° 74° (ENE) 17:52:56 137.62
DOVE 4 11 Dec 17:49:44 17:54:33 59° 74° (ENE) 17:59:39 437.250
HO-68 11 Dec 17:50:27 17:55:28 21° 58° (ENE) 18:00:29 435.675
LilacSat-2 11 Dec 17:51:47 17:55:37 87° 78° (ENE) 17:59:27 437.200
YUBILEINY 11 Dec 17:57:20 18:05:05 38° 86° (E) 18:12:53 435.215
Cubesat XI-IV 11 Dec 18:08:15 18:13:37 74° 257° (WSW) 18:19:00 437.490
GOMX 1 11 Dec 18:12:11 18:16:27 34° 265° (W) 18:21:01 467.674
CUTE 1.7 + AOD 2 11 Dec 18:19:56 18:22:22 15° 66° (ENE) 18:24:48 437.475
CINEMA 3 11 Dec 18:22:38 18:27:04 33° 70° (ENE) 18:31:32 145.822/145.860
STARS 11 Dec 18:22:52 18:25:53 18° 294° (WNW) 18:28:54 437.465
CUSAT 1 11 Dec 18:36:41 18:38:31 12° 74° (ENE) 18:40:29 437.405
CANX-2 11 Dec 18:37:59 18:41:34 28° 71° (ENE) 18:45:09 2200.000
PCSat 11 Dec 18:38:51 18:43:11 23° 50° (NE) 18:47:29 145.827
NOAA 18 11 Dec 18:42:50 18:48:15 56° 259° (W) 18:53:43 137.9125
COMPASS 1 11 Dec 18:49:40 18:51:53 14° 66° (ENE) 18:54:07 437.405
STRAND 1 11 Dec 18:50:10 18:53:57 21° 94° (E) 18:57:42 437.568
SEEDS 11 Dec 18:50:23 18:53:37 22° 69° (ENE) 18:56:50 437.485
Cosmos 2504 11 Dec 18:55:56 19:03:49 45° 87° (E) 19:12:04 435.465 / 435.565
SO-50 11 Dec 19:16:22 19:21:03 55° 305° (NW) 19:25:41 436.795
AIST 1 11 Dec 19:22:36 19:26:54 85° 100° (E) 19:31:18
CUTE-I 11 Dec 19:22:57 19:25:59 15° 268° (W) 19:29:03 437.470
Oscar 11 11 Dec 19:23:43 19:24:39 11° 63° (ENE) 19:25:35 145.826/435.025
NOAA 15 11 Dec 19:25:53 19:27:58 12° 269° (W) 19:30:04 137.62
ISS 11 Dec 19:27:37 19:29:43 16° 22° (NNE) 19:31:49 145.825
DOVE 4 11 Dec 19:29:56 19:32:39 15° 271° (W) 19:35:28 437.250
Cosmos 2491 11 Dec 19:32:02 19:38:51 27° 278° (W) 19:45:42 435.465 / 435.565
CUBEBUG 2 11 Dec 19:34:15 19:38:46 45° 73° (ENE) 19:43:13 437.445
HO-68 11 Dec 19:35:16 19:42:25 75° 256° (WSW) 19:49:38 435.675
AAUSAT CUBESAT 2 11 Dec 19:46:11 19:50:08 49° 74° (ENE) 19:54:06 437.432
YUBILEINY 11 Dec 19:53:29 20:01:40 44° 285° (WNW) 20:09:58 435.215
CUTE 1.7 + AOD 2 11 Dec 19:53:51 19:57:50 42° 262° (W) 20:01:50 437.475
CINEMA 3 11 Dec 20:00:00 20:04:09 26° 266° (W) 20:08:22 145.822/145.860
UWE-3 11 Dec 20:03:03 20:07:37 59° 75° (ENE) 20:12:05 435.000/436.395/437.385
CANX-2 11 Dec 20:14:08 20:17:23 21° 265° (W) 20:20:38 2200.000
CUSAT 1 11 Dec 20:15:59 20:20:20 63° 262° (W) 20:26:03 437.405
PCSat 11 Dec 20:21:36 20:26:50 50° 248° (WSW) 20:32:02 145.827
COMPASS 1 11 Dec 20:23:07 20:27:03 43° 261° (W) 20:30:59 437.405
DANDE 11 Dec 20:23:59 20:27:00 32° 80° (E) 20:30:48 436.750
SEEDS 11 Dec 20:25:37 20:29:09 27° 264° (W) 20:32:42 437.485
STRAND 1 11 Dec 20:28:29 20:33:17 42° 289° (WNW) 20:38:02 437.568
ZACube-1 11 Dec 20:29:34 20:34:03 70° 76° (ENE) 20:38:29 437.345
FUNcube-1 11 Dec 20:33:29 20:37:57 71° 76° (ENE) 20:42:22 145.935
PRISM 11 Dec 20:44:27 20:47:18 18° 94° (E) 20:50:08 437.425
Cosmos 2504 11 Dec 20:49:27 20:57:14 39° 287° (WNW) 21:05:23 435.465 / 435.565
Oscar 11 11 Dec 20:55:55 21:00:12 67° 259° (W) 21:04:30 145.826/435.025
HUMSAT D 11 Dec 21:01:26 21:04:49 24° 70° (ENE) 21:08:10 437.325/437.525
ISS 11 Dec 21:03:19 21:06:38 87° 43° (NE) 21:09:56 145.825
CUBEBUG 2 11 Dec 21:12:27 21:15:32 17° 267° (W) 21:18:36 437.445
DELFI C3 11 Dec 21:23:11 21:27:06 87° 77° (ENE) 21:31:03 145.870
AAUSAT CUBESAT 2 11 Dec 21:24:24 21:25:52 12° 269° (W) 21:27:20 437.432
HO-68 11 Dec 21:29:52 21:31:11 10° 272° (W) 21:32:30 435.675
PHONESAT 2.4 11 Dec 21:30:25 21:32:46 29° 154° (SSE) 21:35:09 2401.200-2431.200
UNISAT 6 11 Dec 21:39:26 21:42:13 17° 93° (E) 21:44:56 437.425
UWE-3 11 Dec 21:42:26 21:44:22 12° 269° (W) 21:46:17 435.000/436.395/437.385
TIGRISAT 11 Dec 22:06:28 22:10:19 31° 96° (E) 22:14:06 435.000
DANDE 11 Dec 22:08:27 22:09:36 11° 265° (W) 22:10:50 436.750
ANTELSAT 11 Dec 22:09:34 22:13:34 36° 97° (E) 22:17:30 437.575/2403.000
CUBEBUG 1 11 Dec 22:13:12 22:15:19 13° 64° (ENE) 22:17:27 437.445
PRISM 11 Dec 22:18:52 22:22:39 34° 289° (WNW) 22:26:24 437.425
ESTCUBE 1 11 Dec 22:23:54 22:27:45 29° 70° (ENE) 22:31:37 437.505/2401.250
JAS-2 11 Dec 22:26:01 22:28:00 12° 92° (E) 22:30:02 435.910
HUMSAT D 11 Dec 22:36:52 22:40:19 25° 264° (W) 22:43:45 437.325/437.525
VELOX 1 11 Dec 22:40:04 22:43:03 18° 66° (ENE) 22:46:03 145.980
GONETS M04 11 Dec 22:40:22 22:44:30 14° 77° (ENE) 22:48:38
QB50P1 11 Dec 22:53:37 22:54:14 10° 91° (E) 22:54:50 145.935-145.965
PHONESAT 2.4 11 Dec 23:05:09 23:07:48 66° 350° (N) 23:10:25 2401.200-2431.200
POPSAT HIP 1 11 Dec 23:13:42 23:16:40 18° 94° (E) 23:19:36 437.405
UNISAT 6 11 Dec 23:15:04 23:19:04 37° 288° (WNW) 23:23:00 437.425
AO-85 11 Dec 23:21:55 23:24:23 14° 109° (ESE) 23:26:45 145.980
Cosmos 2499 11 Dec 23:28:48 23:36:36 39° 86° (E) 23:44:37 435.465 / 435.565
50 SAT 11 Dec 23:35:21 23:38:47 56° 75° (ENE) 23:42:15 437.505
AISAT 11 Dec 23:38:13 23:42:39 84° 75° (ENE) 23:47:08 437.250
TIGRISAT 11 Dec 23:43:36 23:46:48 21° 293° (WNW) 23:49:57 435.000
CUBEBUG 1 11 Dec 23:46:50 23:51:06 54° 260° (W) 23:55:26 437.445
ANTELSAT 11 Dec 23:47:03 23:49:59 18° 294° (WNW) 23:52:53 437.575/2403.000
O/OREOS (USA 219) 11 Dec 23:57:13 00:00:19 18° 58° (ENE) 00:03:24 437.305
SPROUT 11 Dec 23:58:32 00:02:50 87° 76° (ENE) 00:07:11 437.525
UKube-1 12 Dec 00:00:00 00:04:10 52° 73° (ENE) 00:08:23 .
ESTCUBE 1 12 Dec 00:00:56 00:04:31 23° 265° (W) 00:08:07 437.505/2401.250
NANOSAT C BR1 12 Dec 00:02:32 00:06:44 67° 101° (ESE) 00:10:53 145.865
DX 1 12 Dec 00:05:52 00:10:12 84° 76° (ENE) 00:14:37 434.975-435.025
JAS-2 12 Dec 00:08:14 00:13:31 74° 285° (WNW) 00:19:14 435.910
QB50P2 12 Dec 00:14:58 00:19:11 74° 284° (WNW) 00:23:23 145.880/145.840
VELOX 1 12 Dec 00:15:03 00:19:11 39° 261° (W) 00:23:22 145.980
POLYITAN 1 12 Dec 00:15:18 00:19:31 79° 284° (WNW) 00:23:42 437.675
DUCHIFAT 1 12 Dec 00:21:14 00:25:27 80° 284° (WNW) 00:29:36 145.980
QB50P1 12 Dec 00:26:11 00:30:21 58° 285° (WNW) 00:34:28 145.935-145.965
GONETS M04 12 Dec 00:31:10 00:39:53 84° 95° (E) 00:48:37
PHONESAT 2.4 12 Dec 00:40:28 00:43:04 54° 5° (N) 00:45:39 2401.200-2431.200
POPSAT HIP 1 12 Dec 00:48:42 00:52:29 33° 289° (WNW) 00:56:16 437.405
BUGSAT 1 12 Dec 00:50:59 00:55:10 82° 103° (ESE) 00:59:15 437.445
AUBIESAT-1 12 Dec 00:51:07 00:52:16 11° 56° (NE) 00:53:27 437.475
SWISSCUBE 12 Dec 00:51:08 00:53:06 12° 62° (ENE) 00:55:04 437.505
BEESAT 12 Dec 00:54:37 00:56:26 12° 62° (ENE) 00:58:15 436.000
TISAT 1 12 Dec 00:56:45 01:00:56 60° 74° (ENE) 01:05:08 437.305
AO-85 12 Dec 00:59:28 01:04:23 65° 302° (WNW) 01:08:57 145.980
M-CUBED/EXP-1 PRIME 12 Dec 01:06:52 01:10:00 20° 61° (ENE) 01:13:15 437.505
Oscar 19 12 Dec 01:13:42 01:18:18 31° 97° (E) 01:22:53 437.125/150
Cosmos 2499 12 Dec 01:21:22 01:29:33 45° 285° (WNW) 01:38:00 435.465 / 435.565
ITUPSAT 1 12 Dec 01:24:32 01:28:20 24° 67° (ENE) 01:32:08 437.325
O/OREOS (USA 219) 12 Dec 01:35:42 01:39:54 41° 254° (WSW) 01:44:04 437.305
UKube-1 12 Dec 01:38:42 01:40:29 12° 268° (W) 01:42:17 .
NANOSAT C BR1 12 Dec 01:41:29 01:41:51 10° 297° (WNW) 01:42:13 145.865
Gurwin Techsat 1B 12 Dec 02:02:54 02:08:02 47° 100° (E) 02:13:07 435.225
SO-50 12 Dec 02:10:47 02:12:30 12° 40° (NE) 02:14:13 436.795
PHONESAT 2.4 12 Dec 02:15:39 02:18:11 46° 202° (SSW) 02:20:42 2401.200-2431.200
AUBIESAT-1 12 Dec 02:21:40 02:25:55 80° 253° (WSW) 02:30:27 437.475
SWISSCUBE 12 Dec 02:25:33 02:30:17 69° 258° (WSW) 02:35:03 437.505
BEESAT 12 Dec 02:28:50 02:33:35 72° 257° (WSW) 02:38:21 436.000
AO-7 12 Dec 02:29:38 02:34:13 15° 91° (E) 02:38:46 29.400- 29.500
GONETS M04 12 Dec 02:31:58 02:37:46 19° 295° (WNW) 02:43:36
MOZHAYETS 4 12 Dec 02:36:01 02:40:00 31° 70° (ENE) 02:44:01
TISAT 1 12 Dec 02:36:26 02:36:55 10° 269° (W) 02:37:24 437.305
M-CUBED/EXP-1 PRIME 12 Dec 02:40:08 02:44:06 39° 258° (WSW) 02:48:21 437.505
Oscar 19 12 Dec 02:53:03 02:57:31 30° 292° (WNW) 03:01:57 437.125/150
ITUPSAT 1 12 Dec 03:01:40 03:05:58 33° 262° (W) 03:10:17 437.325
BEESAT 3 12 Dec 03:02:59 03:06:30 34° 115° (ESE) 03:10:05 437.485
ITAMSAT 1 12 Dec 03:35:34 03:40:46 79° 103° (ESE) 03:45:56 435.822/435.867
STARS 12 Dec 03:40:53 03:44:41 29° 69° (ENE) 03:48:31 437.465
Gurwin Techsat 1B 12 Dec 03:43:43 03:47:36 21° 295° (WNW) 03:51:28 435.225
BEESAT 2 12 Dec 03:46:30 03:50:16 47° 116° (ESE) 03:54:06 435.950
SO-50 12 Dec 03:49:09 03:53:40 86° 57° (ENE) 03:58:07 436.795
KKS-1 12 Dec 03:53:07 03:57:36 88° 76° (ENE) 04:02:07 437.445
YUBILEINY 12 Dec 04:10:11 04:15:27 17° 63° (ENE) 04:20:42 435.215
MOZHAYETS 4 12 Dec 04:13:30 04:17:09 23° 265° (W) 04:20:49
AO-7 12 Dec 04:19:33 04:27:59 86° 108° (ESE) 04:36:22 29.400- 29.500
CUBESAT XI-V 12 Dec 04:33:20 04:37:54 78° 75° (ENE) 04:42:31 437.345
BEESAT 3 12 Dec 04:41:19 04:44:13 20° 311° (NW) 04:47:10 437.485
Cosmos 2491 12 Dec 04:43:35 04:46:21 12° 75° (ENE) 04:49:06 435.465 / 435.565
Cosmos 2504 12 Dec 04:52:48 04:57:08 14° 60° (ENE) 05:01:21 435.465 / 435.565
HORYU 2 12 Dec 05:00:16 05:03:36 21° 95° (E) 05:06:54 437.375
ITAMSAT 1 12 Dec 05:17:24 05:19:32 13° 300° (WNW) 05:21:39 435.822/435.867
STARS 12 Dec 05:17:25 05:20:59 24° 264° (W) 05:24:35 437.465
BEESAT 2 12 Dec 05:25:49 05:28:19 16° 314° (NW) 05:30:50 435.950
AIST 1 12 Dec 05:32:02 05:35:06 18° 73° (ENE) 05:38:10
RS-15 12 Dec 05:33:49 05:44:11 39° 106° (ESE) 05:54:57 29.354- 29.394
BRITE-PL 12 Dec 05:35:33 05:41:12 81° 102° (ESE) 05:46:54 437.365/2234.400
AIST 2 12 Dec 05:37:39 05:40:15 17° 110° (ESE) 05:42:54 435.215
DOVE 4 12 Dec 05:51:16 05:55:01 20° 92° (E) 05:58:38 437.250
CUTE-I 12 Dec 05:59:21 06:03:51 27° 96° (E) 06:08:19 437.470
NOAA 15 12 Dec 05:59:29 06:04:07 30° 97° (E) 06:08:44 137.62
STRAND 1 12 Dec 06:04:31 06:08:44 26° 67° (ENE) 06:12:57 437.568
YUBILEINY 12 Dec 06:04:41 06:13:35 86° 84° (E) 06:22:26 435.215
AO-7 12 Dec 06:13:53 06:19:43 22° 306° (NW) 06:25:33 29.400- 29.500
GOMX 1 12 Dec 06:14:31 06:20:04 83° 103° (ESE) 06:25:26 467.674
Cubesat XI-IV 12 Dec 06:27:06 06:32:17 50° 100° (E) 06:37:26 437.490
Cosmos 2491 12 Dec 06:32:49 06:41:32 74° 93° (E) 06:50:14 435.465 / 435.565
HORYU 2 12 Dec 06:36:14 06:40:10 32° 290° (WNW) 06:44:05 437.375
Cosmos 2504 12 Dec 06:43:26 06:52:08 78° 82° (E) 07:00:12 435.465 / 435.565
LilacSat-2 12 Dec 07:00:45 07:04:23 47° 286° (WNW) 07:08:00 437.200
